User: anonymous   Login
Location: Copper Breaks State Park
(34.1132°N, 99.7492°W)
Time: 07:13:41
(UTC-06:00)
Language:

SL-16 R/B - Orbit

View from above orbital plane
View from above orbital plane
View from above satellite
View from above satellite

Ground track
Ground track

The orbit data is extracted from the following two-line orbital elements,

1 27006U 01056F   17021.24122348 -.00000048  00000-0 -54486-5 0  9990
2 27006  99.2887 167.1344 0014232 335.7965  87.8782 13.70972615756364
Epoch (UTC): 21 January 2017 05:47:21
Eccentricity: 0.0014232
inclination: 99.2887°
perigee height: 985 km
apogee height: 1006 km
right ascension of ascending node: 167.1344°
argument of perigee: 335.7965°
revolutions per day: 13.70972615
mean anomaly at epoch: 87.8782°
orbit number at epoch: 75636

The dashed part of the orbit path shows where the satellite is in the earth's shadow,  

DLR